Time,TemperatureF,DewpointF,PressureIn,WindDirection,WindDirectionDegrees,WindSpeedMPH,WindSpeedGustMPH,Humidity,HourlyPrecipIn,Conditions,Clouds,dailyrainin,SoftwareType,DateUTC
2013-02-19 00:00:00,41.2,36.1,29.80,SSE,149,0.0,1.0,82,0.00,,,0.00,WUHU216DAVISVP2,2013-02-19 08:00:00,
2013-02-19 00:05:00,41.1,36.3,29.80,WSW,249,0.0,1.0,83,0.00,,,0.00,WUHU216DAVISVP2,2013-02-19 08:05:00,
2013-02-19 00:10:00,41.1,36.3,29.80,WSW,238,0.0,2.0,83,0.00,,,0.00,WUHU216DAVISVP2,2013-02-19 08:10:00,
2013-02-19 00:15:00,41.1,36.3,29.80,WSW,246,0.0,2.0,83,0.00,,,0.00,WUHU216DAVISVP2,2013-02-19 08:15:00,
2013-02-19 00:20:00,41.0,36.2,29.80,WSW,246,0.0,2.0,83,0.00,,,0.00,WUHU216DAVISVP2,2013-02-19 08:20:00,
2013-02-19 00:25:00,40.9,36.4,29.80,WSW,247,0.0,2.0,84,0.00,,,0.00,WUHU216DAVISVP2,2013-02-19 08:25:00,
2013-02-19 00:30:00,40.8,36.3,29.80,WSW,248,0.0,1.0,84,0.00,,,0.00,WUHU216DAVISVP2,2013-02-19 08:30:00,
2013-02-19 00:35:00,40.8,36.3,29.79,WSW,248,0.0,0.0,84,0.00,,,0.00,WUHU216DAVISVP2,2013-02-19 08:35:00,
2013-02-19 00:40:00,40.8,36.3,29.79,WSW,248,0.0,0.0,84,0.00,,,0.00,WUHU216DAVISVP2,2013-02-19 08:40:00,
2013-02-19 00:45:00,40.7,36.2,29.79,WSW,247,0.0,0.0,84,0.00,,,0.00,WUHU216DAVISVP2,2013-02-19 08:45:00,
2013-02-19 00:50:00,40.7,36.2,29.79,WSW,248,0.0,0.0,84,0.00,,,0.00,WUHU216DAVISVP2,2013-02-19 08:50:00,
2013-02-19 00:55:00,40.6,36.1,29.79,WSW,248,0.0,0.0,84,0.00,,,0.00,WUHU216DAVISVP2,2013-02-19 08:55:00,
2013-02-19 01:00:00,40.6,36.1,29.79,WSW,248,0.0,0.0,84,0.00,,,0.00,WUHU216DAVISVP2,2013-02-19 09:00:00,
2013-02-19 01:05:00,40.4,36.2,29.79,WSW,248,0.0,0.0,85,0.00,,,0.00,WUHU216DAVISVP2,2013-02-19 09:05:00,
2013-02-19 01:10:00,40.3,36.1,29.79,WSW,247,0.0,0.0,85,0.00,,,0.00,WUHU216DAVISVP2,2013-02-19 09:10:00,
2013-02-19 01:15:00,40.2,36.0,29.79,WSW,247,0.0,0.0,85,0.00,,,0.00,WUHU216DAVISVP2,2013-02-19 09:15:00,
2013-02-19 01:20:00,39.9,35.7,29.78,WSW,248,0.0,0.0,85,0.00,,,0.00,WUHU216DAVISVP2,2013-02-19 09:20:00,
2013-02-19 01:25:00,39.6,35.7,29.78,WSW,248,0.0,0.0,86,0.00,,,0.00,WUHU216DAVISVP2,2013-02-19 09:25:00,
2013-02-19 01:30:00,39.4,35.5,29.78,WSW,248,0.0,0.0,86,0.00,,,0.00,WUHU216DAVISVP2,2013-02-19 09:30:00,
2013-02-19 01:35:00,39.2,35.7,29.78,NNW,333,0.0,1.0,87,0.00,,,0.00,WUHU216DAVISVP2,2013-02-19 09:35:00,
2013-02-19 01:40:00,39.3,35.7,29.78,NNW,334,0.0,1.0,87,0.00,,,0.00,WUHU216DAVISVP2,2013-02-19 09:40:00,
2013-02-19 01:45:00,39.2,35.7,29.78,North,1,0.0,1.0,87,0.00,,,0.00,WUHU216DAVISVP2,2013-02-19 09:45:00,
2013-02-19 01:50:00,39.3,36.0,29.78,North,352,0.0,1.0,88,0.00,,,0.00,WUHU216DAVISVP2,2013-02-19 09:50:00,
2013-02-19 01:55:00,39.3,36.0,29.78,NNE,25,0.0,1.0,88,0.00,,,0.00,WUHU216DAVISVP2,2013-02-19 09:55:00,
2013-02-19 02:00:00,39.1,35.8,29.78,ENE,77,0.0,1.0,88,0.00,,,0.00,WUHU216DAVISVP2,2013-02-19 10:00:00,
2013-02-19 02:05:00,39.0,35.7,29.78,East,85,0.0,2.0,88,0.00,,,0.00,WUHU216DAVISVP2,2013-02-19 10:05:00,
2013-02-19 02:10:00,38.9,35.9,29.78,East,99,0.0,2.0,89,0.00,,,0.00,WUHU216DAVISVP2,2013-02-19 10:10:00,
2013-02-19 02:15:00,38.7,36.0,29.78,East,98,0.0,1.0,90,0.00,,,0.00,WUHU216DAVISVP2,2013-02-19 10:15:00,
2013-02-19 02:20:00,38.7,36.0,29.78,East,99,0.0,1.0,90,0.00,,,0.00,WUHU216DAVISVP2,2013-02-19 10:20:00,
2013-02-19 02:25:00,38.4,35.7,29.78,East,98,0.0,1.0,90,0.00,,,0.00,WUHU216DAVISVP2,2013-02-19 10:25:00,
2013-02-19 02:30:00,38.1,35.7,29.78,NNE,32,0.0,1.0,91,0.00,,,0.00,WUHU216DAVISVP2,2013-02-19 10:30:00,
2013-02-19 02:35:00,38.1,35.7,29.78,North,6,0.0,1.0,91,0.00,,,0.00,WUHU216DAVISVP2,2013-02-19 10:35:00,
2013-02-19 02:40:00,38.1,35.7,29.78,North,6,0.0,1.0,91,0.00,,,0.00,WUHU216DAVISVP2,2013-02-19 10:40:00,
2013-02-19 02:45:00,38.1,35.9,29.78,NNE,20,1.0,1.0,92,0.00,,,0.00,WUHU216DAVISVP2,2013-02-19 10:45:00,
2013-02-19 02:50:00,38.4,36.0,29.78,North,358,0.0,2.0,91,0.00,,,0.00,WUHU216DAVISVP2,2013-02-19 10:50:00,
2013-02-19 02:55:00,38.4,35.7,29.78,North,359,0.0,2.0,90,0.00,,,0.00,WUHU216DAVISVP2,2013-02-19 10:55:00,
2013-02-19 03:00:00,38.3,35.6,29.77,North,358,0.0,1.0,90,0.00,,,0.00,WUHU216DAVISVP2,2013-02-19 11:00:00,
2013-02-19 03:05:00,38.0,35.6,29.78,North,359,0.0,1.0,91,0.00,,,0.00,WUHU216DAVISVP2,2013-02-19 11:05:00,
2013-02-19 03:10:00,37.9,35.2,29.77,North,359,0.0,0.0,90,0.00,,,0.00,WUHU216DAVISVP2,2013-02-19 11:10:00,
2013-02-19 03:15:00,37.6,35.2,29.78,North,358,0.0,0.0,91,0.00,,,0.00,WUHU216DAVISVP2,2013-02-19 11:15:00,
2013-02-19 03:20:00,37.5,35.1,29.78,North,358,0.0,1.0,91,0.00,,,0.00,WUHU216DAVISVP2,2013-02-19 11:20:00,
2013-02-19 03:25:00,37.5,35.1,29.78,North,5,0.0,1.0,91,0.00,,,0.00,WUHU216DAVISVP2,2013-02-19 11:25:00,
2013-02-19 03:30:00,37.5,35.3,29.78,North,5,0.0,1.0,92,0.00,,,0.00,WUHU216DAVISVP2,2013-02-19 11:30:00,
2013-02-19 03:35:00,37.6,35.4,29.78,North,1,0.0,1.0,92,0.00,,,0.00,WUHU216DAVISVP2,2013-02-19 11:35:00,
2013-02-19 03:40:00,37.6,35.4,29.78,North,10,0.0,1.0,92,0.00,,,0.00,WUHU216DAVISVP2,2013-02-19 11:40:00,
2013-02-19 03:45:00,37.6,35.7,29.78,North,6,0.0,2.0,93,0.00,,,0.00,WUHU216DAVISVP2,2013-02-19 11:45:00,
2013-02-19 03:50:00,37.6,35.8,29.78,NNE,19,1.0,2.0,93,0.00,,,0.00,WUHU216DAVISVP2,2013-02-19 11:50:00,
2013-02-19 03:55:00,37.6,35.8,29.78,NNE,15,0.0,1.0,93,0.00,,,0.00,WUHU216DAVISVP2,2013-02-19 11:55:00,
2013-02-19 04:00:00,37.6,35.7,29.78,NNE,13,2.0,2.0,93,0.00,,,0.00,WUHU216DAVISVP2,2013-02-19 12:00:00,
2013-02-19 04:05:00,37.6,36.0,29.78,NNE,23,0.0,2.0,94,0.00,,,0.00,WUHU216DAVISVP2,2013-02-19 12:05:00,
2013-02-19 04:10:00,37.7,36.1,29.78,NNE,15,0.0,2.0,94,0.00,,,0.00,WUHU216DAVISVP2,2013-02-19 12:10:00,
2013-02-19 04:15:00,37.7,36.1,29.78,NNE,30,0.0,2.0,94,0.00,,,0.00,WUHU216DAVISVP2,2013-02-19 12:15:00,
2013-02-19 04:20:00,37.8,36.2,29.78,NNE,27,0.0,2.0,94,0.00,,,0.00,WUHU216DAVISVP2,2013-02-19 12:20:00,
2013-02-19 04:25:00,37.8,36.2,29.78,North,8,0.0,2.0,94,0.00,,,0.00,WUHU216DAVISVP2,2013-02-19 12:25:00,
2013-02-19 04:30:00,37.9,36.3,29.78,North,8,0.0,1.0,94,0.00,,,0.00,WUHU216DAVISVP2,2013-02-19 12:30:00,
2013-02-19 04:35:00,37.9,36.3,29.78,NNE,22,0.0,1.0,94,0.00,,,0.00,WUHU216DAVISVP2,2013-02-19 12:35:00,
2013-02-19 04:40:00,38.1,36.5,29.78,NNE,20,0.0,1.0,94,0.00,,,0.00,WUHU216DAVISVP2,2013-02-19 12:40:00,
2013-02-19 04:45:00,38.1,36.5,29.78,NNE,20,0.0,1.0,94,0.00,,,0.00,WUHU216DAVISVP2,2013-02-19 12:45:00,
2013-02-19 04:50:00,38.1,36.5,29.78,North,11,0.0,1.0,94,0.00,,,0.00,WUHU216DAVISVP2,2013-02-19 12:50:00,
2013-02-19 04:55:00,38.1,36.5,29.78,North,355,0.0,2.0,94,0.00,,,0.00,WUHU216DAVISVP2,2013-02-19 12:55:00,
2013-02-19 05:00:00,38.1,36.5,29.79,NNW,347,0.0,2.0,94,0.00,,,0.00,WUHU216DAVISVP2,2013-02-19 13:00:00,
2013-02-19 05:05:00,38.1,36.5,29.79,North,9,0.0,2.0,94,0.00,,,0.00,WUHU216DAVISVP2,2013-02-19 13:05:00,
2013-02-19 05:10:00,38.2,36.3,29.79,ENE,75,0.0,1.0,93,0.00,,,0.00,WUHU216DAVISVP2,2013-02-19 13:10:00,
2013-02-19 05:15:00,38.3,36.4,29.79,NE,47,0.0,1.0,93,0.00,,,0.00,WUHU216DAVISVP2,2013-02-19 13:15:00,
2013-02-19 05:20:00,38.4,36.5,29.79,NE,47,0.0,1.0,93,0.00,,,0.00,WUHU216DAVISVP2,2013-02-19 13:20:00,
2013-02-19 05:25:00,38.4,36.5,29.79,NNE,25,0.0,1.0,93,0.00,,,0.00,WUHU216DAVISVP2,2013-02-19 13:25:00,
2013-02-19 05:30:00,38.5,36.6,29.79,NNE,16,0.0,1.0,93,0.00,,,0.00,WUHU216DAVISVP2,2013-02-19 13:30:00,
2013-02-19 05:35:00,38.6,36.8,29.79,NNE,25,0.0,1.0,93,0.00,,,0.00,WUHU216DAVISVP2,2013-02-19 13:35:00,
2013-02-19 05:40:00,38.6,36.4,29.79,NNE,28,0.0,1.0,92,0.00,,,0.00,WUHU216DAVISVP2,2013-02-19 13:40:00,
2013-02-19 05:45:00,38.6,36.4,29.79,NNE,29,1.0,1.0,92,0.00,,,0.00,WUHU216DAVISVP2,2013-02-19 13:45:00,
2013-02-19 05:50:00,38.6,36.4,29.80,WNW,297,0.0,2.0,92,0.00,,,0.00,WUHU216DAVISVP2,2013-02-19 13:50:00,
2013-02-19 05:55:00,38.7,36.5,29.80,NNE,14,1.0,2.0,92,0.00,,,0.00,WUHU216DAVISVP2,2013-02-19 13:55:00,
2013-02-19 06:00:00,38.8,36.6,29.80,North,353,2.0,3.0,92,0.00,,,0.00,WUHU216DAVISVP2,2013-02-19 14:00:00,
2013-02-19 06:05:00,38.9,36.7,29.80,North,359,2.0,4.0,92,0.00,,,0.00,WUHU216DAVISVP2,2013-02-19 14:05:00,
2013-02-19 06:10:00,38.9,36.7,29.80,North,356,0.0,4.0,92,0.00,,,0.00,WUHU216DAVISVP2,2013-02-19 14:10:00,
2013-02-19 06:15:00,39.0,36.9,29.80,North,360,0.0,4.0,92,0.00,,,0.00,WUHU216DAVISVP2,2013-02-19 14:15:00,
2013-02-19 06:20:00,39.0,36.8,29.80,North,1,0.0,4.0,92,0.00,,,0.00,WUHU216DAVISVP2,2013-02-19 14:20:00,
2013-02-19 06:25:00,39.0,36.8,29.80,NNE,16,0.0,3.0,92,0.00,,,0.00,WUHU216DAVISVP2,2013-02-19 14:25:00,
2013-02-19 06:30:00,39.0,36.8,29.80,North,8,0.0,2.0,92,0.00,,,0.00,WUHU216DAVISVP2,2013-02-19 14:30:00,
2013-02-19 06:35:00,38.9,36.7,29.80,North,8,0.0,1.0,92,0.00,,,0.00,WUHU216DAVISVP2,2013-02-19 14:35:00,
2013-02-19 06:40:00,38.9,36.7,29.80,North,8,0.0,1.0,92,0.00,,,0.00,WUHU216DAVISVP2,2013-02-19 14:40:00,
2013-02-19 06:45:00,38.9,36.8,29.80,North,8,0.0,1.0,92,0.00,,,0.00,WUHU216DAVISVP2,2013-02-19 14:45:00,
2013-02-19 06:50:00,38.9,36.7,29.80,North,8,0.0,1.0,92,0.00,,,0.00,WUHU216DAVISVP2,2013-02-19 14:50:00,
2013-02-19 06:55:00,38.9,36.7,29.80,North,356,0.0,1.0,92,0.00,,,0.00,WUHU216DAVISVP2,2013-02-19 14:55:00,
2013-02-19 07:00:00,38.9,36.8,29.80,North,354,0.0,1.0,92,0.00,,,0.00,WUHU216DAVISVP2,2013-02-19 15:00:00,
2013-02-19 07:05:00,39.1,36.9,29.80,NNE,20,0.0,2.0,92,0.00,,,0.00,WUHU216DAVISVP2,2013-02-19 15:05:00,
2013-02-19 07:10:00,39.2,36.7,29.81,North,359,1.0,3.0,91,0.00,,,0.00,WUHU216DAVISVP2,2013-02-19 15:10:00,
2013-02-19 07:15:00,39.3,36.8,29.81,North,359,2.0,4.0,91,0.00,,,0.00,WUHU216DAVISVP2,2013-02-19 15:15:00,
2013-02-19 07:20:00,39.4,36.9,29.81,North,356,0.0,4.0,91,0.00,,,0.00,WUHU216DAVISVP2,2013-02-19 15:20:00,
2013-02-19 07:25:00,39.5,37.1,29.81,North,359,0.0,4.0,91,0.00,,,0.00,WUHU216DAVISVP2,2013-02-19 15:25:00,
2013-02-19 07:30:00,39.5,37.0,29.81,NNE,29,0.0,4.0,91,0.00,,,0.00,WUHU216DAVISVP2,2013-02-19 15:30:00,
2013-02-19 07:35:00,39.5,37.1,29.81,North,8,0.0,3.0,91,0.00,,,0.00,WUHU216DAVISVP2,2013-02-19 15:35:00,
2013-02-19 07:40:00,39.5,37.1,29.81,North,10,0.0,3.0,91,0.00,,,0.00,WUHU216DAVISVP2,2013-02-19 15:40:00,
2013-02-19 07:45:00,39.6,37.1,29.81,NNE,18,0.0,2.0,91,0.00,,,0.00,WUHU216DAVISVP2,2013-02-19 15:45:00,
2013-02-19 07:50:00,39.7,37.2,29.81,NE,37,0.0,1.0,91,0.00,,,0.00,WUHU216DAVISVP2,2013-02-19 15:50:00,
2013-02-19 07:55:00,39.8,37.3,29.82,NNE,13,1.0,2.0,91,0.00,,,0.00,WUHU216DAVISVP2,2013-02-19 15:55:00,
2013-02-19 08:00:00,39.9,37.4,29.82,North,355,2.0,3.0,91,0.00,,,0.00,WUHU216DAVISVP2,2013-02-19 16:00:00,
2013-02-19 08:05:00,40.0,37.5,29.82,NNE,23,0.0,5.0,91,0.00,,,0.00,WUHU216DAVISVP2,2013-02-19 16:05:00,
2013-02-19 08:10:00,40.1,37.6,29.82,NNW,341,1.0,5.0,91,0.00,,,0.00,WUHU216DAVISVP2,2013-02-19 16:10:00,
2013-02-19 08:15:00,40.3,37.6,29.82,NNW,333,1.0,4.0,90,0.00,,,0.00,WUHU216DAVISVP2,2013-02-19 16:15:00,
2013-02-19 08:20:00,40.4,37.7,29.82,NNE,13,0.0,5.0,90,0.00,,,0.00,WUHU216DAVISVP2,2013-02-19 16:20:00,
2013-02-19 08:25:00,40.6,37.9,29.82,NW,324,0.0,5.0,90,0.00,,,0.00,WUHU216DAVISVP2,2013-02-19 16:25:00,
2013-02-19 08:30:00,40.7,37.7,29.83,NNW,333,0.0,4.0,89,0.00,,,0.00,WUHU216DAVISVP2,2013-02-19 16:30:00,
2013-02-19 08:35:00,40.9,37.6,29.83,North,352,1.0,5.0,88,0.00,,,0.00,WUHU216DAVISVP2,2013-02-19 16:35:00,
2013-02-19 08:40:00,41.1,37.8,29.83,North,356,3.0,5.0,88,0.00,,,0.00,WUHU216DAVISVP2,2013-02-19 16:40:00,
2013-02-19 08:45:00,41.5,38.2,29.83,North,349,1.0,6.0,88,0.00,,,0.00,WUHU216DAVISVP2,2013-02-19 16:45:00,
2013-02-19 08:50:00,42.2,38.6,29.83,NNW,343,3.0,6.0,87,0.00,,,0.00,WUHU216DAVISVP2,2013-02-19 16:50:00,
2013-02-19 08:55:00,43.0,39.4,29.83,ENE,65,2.0,5.0,87,0.00,,,0.00,WUHU216DAVISVP2,2013-02-19 16:55:00,
2013-02-19 09:00:00,43.2,38.7,29.84,NNW,346,3.0,6.0,84,0.00,,,0.00,WUHU216DAVISVP2,2013-02-19 17:00:00,
2013-02-19 09:05:00,42.8,38.3,29.84,North,3,4.0,6.0,84,0.00,,,0.00,WUHU216DAVISVP2,2013-02-19 17:05:00,
2013-02-19 09:10:00,42.7,38.2,29.84,NNW,341,0.0,8.0,84,0.00,,,0.00,WUHU216DAVISVP2,2013-02-19 17:10:00,
2013-02-19 09:15:00,42.8,38.3,29.84,North,8,2.0,8.0,84,0.00,,,0.00,WUHU216DAVISVP2,2013-02-19 17:15:00,
2013-02-19 09:20:00,42.6,38.4,29.84,NNW,329,5.0,8.0,85,0.00,,,0.00,WUHU216DAVISVP2,2013-02-19 17:20:00,
2013-02-19 09:25:00,42.7,38.5,29.84,NNE,24,0.0,8.0,85,0.00,,,0.00,WUHU216DAVISVP2,2013-02-19 17:25:00,
2013-02-19 09:30:00,42.8,38.3,29.84,East,90,4.0,8.0,84,0.00,,,0.00,WUHU216DAVISVP2,2013-02-19 17:30:00,
2013-02-19 09:35:00,42.8,38.3,29.84,NNW,328,2.0,8.0,84,0.00,,,0.00,WUHU216DAVISVP2,2013-02-19 17:35:00,
2013-02-19 09:40:00,43.0,38.8,29.84,NW,315,1.0,8.0,85,0.00,,,0.00,WUHU216DAVISVP2,2013-02-19 17:40:00,
2013-02-19 09:45:00,43.2,38.7,29.84,NNE,17,0.0,8.0,84,0.00,,,0.00,WUHU216DAVISVP2,2013-02-19 17:45:00,
2013-02-19 09:50:00,43.5,37.5,29.84,NNW,338,2.0,8.0,79,0.00,,,0.00,WUHU216DAVISVP2,2013-02-19 17:50:00,
2013-02-19 09:55:00,43.5,36.8,29.84,North,358,2.0,6.0,77,0.00,,,0.00,WUHU216DAVISVP2,2013-02-19 17:55:00,
2013-02-19 10:00:00,43.7,36.4,29.84,North,353,6.0,8.0,75,0.00,,,0.00,WUHU216DAVISVP2,2013-02-19 18:00:00,
2013-02-19 10:05:00,43.6,35.9,29.84,North,350,3.0,8.0,74,0.00,,,0.00,WUHU216DAVISVP2,2013-02-19 18:05:00,
2013-02-19 10:10:00,43.7,35.3,29.84,North,356,3.0,7.0,72,0.00,,,0.00,WUHU216DAVISVP2,2013-02-19 18:10:00,
2013-02-19 10:15:00,43.5,34.7,29.84,North,355,4.0,11.0,71,0.00,,,0.00,WUHU216DAVISVP2,2013-02-19 18:15:00,
2013-02-19 10:20:00,43.3,34.9,29.84,NE,49,1.0,11.0,72,0.00,,,0.00,WUHU216DAVISVP2,2013-02-19 18:20:00,
2013-02-19 10:25:00,43.5,35.4,29.84,SE,143,0.0,10.0,73,0.00,,,0.00,WUHU216DAVISVP2,2013-02-19 18:25:00,
2013-02-19 10:30:00,43.9,35.5,29.85,NW,321,2.0,10.0,72,0.00,,,0.00,WUHU216DAVISVP2,2013-02-19 18:30:00,
2013-02-19 10:35:00,43.9,35.2,29.85,North,3,1.0,8.0,71,0.00,,,0.00,WUHU216DAVISVP2,2013-02-19 18:35:00,
2013-02-19 10:40:00,43.9,35.5,29.85,North,355,0.0,4.0,72,0.00,,,0.00,WUHU216DAVISVP2,2013-02-19 18:40:00,
2013-02-19 10:45:00,44.4,36.0,29.85,NW,324,0.0,4.0,72,0.00,,,0.00,WUHU216DAVISVP2,2013-02-19 18:45:00,
2013-02-19 10:50:00,44.9,36.8,29.85,North,10,0.0,4.0,73,0.00,,,0.00,WUHU216DAVISVP2,2013-02-19 18:50:00,
2013-02-19 10:55:00,45.1,37.0,29.85,NNE,13,1.0,5.0,73,0.00,,,0.00,WUHU216DAVISVP2,2013-02-19 18:55:00,
2013-02-19 11:00:00,45.0,37.3,29.85,NNE,32,2.0,5.0,74,0.00,,,0.00,WUHU216DAVISVP2,2013-02-19 19:00:00,
2013-02-19 11:05:00,45.0,37.3,29.85,North,4,0.0,5.0,74,0.00,,,0.00,WUHU216DAVISVP2,2013-02-19 19:05:00,
2013-02-19 11:10:00,45.2,37.8,29.85,NNE,15,1.0,5.0,75,0.00,,,0.00,WUHU216DAVISVP2,2013-02-19 19:10:00,
2013-02-19 11:15:00,45.7,37.5,29.85,NNW,329,0.0,6.0,73,0.00,,,0.00,WUHU216DAVISVP2,2013-02-19 19:15:00,
2013-02-19 11:20:00,46.7,38.9,29.85,NNW,340,2.0,6.0,74,0.00,,,0.00,WUHU216DAVISVP2,2013-02-19 19:20:00,
2013-02-19 11:25:00,46.9,37.7,29.85,SE,134,0.0,5.0,70,0.00,,,0.00,WUHU216DAVISVP2,2013-02-19 19:25:00,
2013-02-19 11:30:00,47.1,37.9,29.85,North,352,1.0,5.0,70,0.00,,,0.00,WUHU216DAVISVP2,2013-02-19 19:30:00,
2013-02-19 11:35:00,47.1,38.6,29.85,North,8,2.0,5.0,72,0.00,,,0.00,WUHU216DAVISVP2,2013-02-19 19:35:00,
2013-02-19 11:40:00,46.8,38.0,29.86,NNE,17,1.0,6.0,71,0.00,,,0.00,WUHU216DAVISVP2,2013-02-19 19:40:00,
2013-02-19 11:45:00,46.9,38.4,29.86,SW,228,0.0,6.0,72,0.00,,,0.00,WUHU216DAVISVP2,2013-02-19 19:45:00,
2013-02-19 11:50:00,47.7,38.8,29.86,NE,49,0.0,6.0,71,0.00,,,0.00,WUHU216DAVISVP2,2013-02-19 19:50:00,
2013-02-19 11:55:00,48.3,38.6,29.86,NNW,347,1.0,3.0,69,0.00,,,0.00,WUHU216DAVISVP2,2013-02-19 19:55:00,
2013-02-19 12:00:00,48.3,39.1,29.86,NNE,25,1.0,5.0,70,0.00,,,0.00,WUHU216DAVISVP2,2013-02-19 20:00:00,
2013-02-19 12:05:00,47.7,37.8,29.86,North,355,0.0,5.0,68,0.00,,,0.00,WUHU216DAVISVP2,2013-02-19 20:05:00,
2013-02-19 12:10:00,47.7,38.8,29.86,NNE,30,2.0,7.0,71,0.00,,,0.00,WUHU216DAVISVP2,2013-02-19 20:10:00,
2013-02-19 12:15:00,48.3,38.0,29.86,NNE,16,1.0,8.0,67,0.00,,,0.00,WUHU216DAVISVP2,2013-02-19 20:15:00,
2013-02-19 12:20:00,48.2,38.2,29.86,NW,321,0.0,8.0,68,0.00,,,0.00,WUHU216DAVISVP2,2013-02-19 20:20:00,
2013-02-19 12:25:00,48.5,38.9,29.86,NE,37,4.0,8.0,69,0.00,,,0.00,WUHU216DAVISVP2,2013-02-19 20:25:00,
2013-02-19 12:30:00,48.6,37.9,29.86,NW,323,1.0,7.0,66,0.00,,,0.00,WUHU216DAVISVP2,2013-02-19 20:30:00,
2013-02-19 12:35:00,48.4,37.6,29.86,WNW,297,0.0,6.0,66,0.00,,,0.00,WUHU216DAVISVP2,2013-02-19 20:35:00,
2013-02-19 12:40:00,48.9,39.2,29.86,NW,316,2.0,6.0,69,0.00,,,0.00,WUHU216DAVISVP2,2013-02-19 20:40:00,
2013-02-19 12:45:00,49.0,38.2,29.87,NE,37,1.0,6.0,66,0.00,,,0.00,WUHU216DAVISVP2,2013-02-19 20:45:00,
2013-02-19 12:50:00,48.6,37.1,29.87,North,355,2.0,6.0,64,0.00,,,0.00,WUHU216DAVISVP2,2013-02-19 20:50:00,
2013-02-19 12:55:00,48.3,36.8,29.87,NNW,342,0.0,8.0,64,0.00,,,0.00,WUHU216DAVISVP2,2013-02-19 20:55:00,
2013-02-19 13:00:00,48.2,36.7,29.87,NNW,328,5.0,9.0,64,0.00,,,0.00,WUHU216DAVISVP2,2013-02-19 21:00:00,
2013-02-19 13:05:00,48.1,37.3,29.87,NNE,13,1.0,9.0,66,0.00,,,0.00,WUHU216DAVISVP2,2013-02-19 21:05:00,
2013-02-19 13:10:00,47.7,36.6,29.87,North,3,2.0,12.0,65,0.00,,,0.00,WUHU216DAVISVP2,2013-02-19 21:10:00,
2013-02-19 13:15:00,47.9,36.8,29.87,NNE,12,4.0,12.0,65,0.00,,,0.00,WUHU216DAVISVP2,2013-02-19 21:15:00,
2013-02-19 13:20:00,47.5,36.4,29.87,NW,321,4.0,11.0,65,0.00,,,0.00,WUHU216DAVISVP2,2013-02-19 21:20:00,
2013-02-19 13:25:00,47.9,36.4,29.87,NNE,27,2.0,11.0,64,0.00,,,0.00,WUHU216DAVISVP2,2013-02-19 21:25:00,
2013-02-19 13:30:00,48.0,36.4,29.87,NE,55,1.0,11.0,64,0.00,,,0.00,WUHU216DAVISVP2,2013-02-19 21:30:00,
2013-02-19 13:35:00,48.5,36.9,29.87,NNE,20,9.0,11.0,64,0.00,,,0.00,WUHU216DAVISVP2,2013-02-19 21:35:00,
2013-02-19 13:40:00,48.2,36.3,29.88,NE,34,2.0,11.0,63,0.00,,,0.00,WUHU216DAVISVP2,2013-02-19 21:40:00,
2013-02-19 13:45:00,48.3,37.2,29.88,NE,42,6.0,11.0,65,0.00,,,0.00,WUHU216DAVISVP2,2013-02-19 21:45:00,
2013-02-19 13:50:00,48.1,36.9,29.88,NNE,24,8.0,10.0,65,0.00,,,0.00,WUHU216DAVISVP2,2013-02-19 21:50:00,
2013-02-19 13:55:00,47.5,37.2,29.88,West,266,3.0,14.0,67,0.00,,,0.00,WUHU216DAVISVP2,2013-02-19 21:55:00,
2013-02-19 14:00:00,47.5,37.9,29.88,North,355,1.0,14.0,69,0.00,,,0.00,WUHU216DAVISVP2,2013-02-19 22:00:00,
2013-02-19 14:05:00,48.4,38.1,29.88,NE,41,2.0,14.0,67,0.00,,,0.00,WUHU216DAVISVP2,2013-02-19 22:05:00,
2013-02-19 14:10:00,48.4,37.3,29.88,North,11,1.0,13.0,65,0.00,,,0.00,WUHU216DAVISVP2,2013-02-19 22:10:00,
2013-02-19 14:15:00,48.1,36.6,29.88,North,10,4.0,14.0,64,0.00,,,0.00,WUHU216DAVISVP2,2013-02-19 22:15:00,
2013-02-19 14:20:00,48.1,36.5,29.88,NNW,343,2.0,14.0,64,0.00,,,0.00,WUHU216DAVISVP2,2013-02-19 22:20:00,
2013-02-19 14:25:00,48.3,36.3,29.88,North,10,4.0,13.0,63,0.00,,,0.00,WUHU216DAVISVP2,2013-02-19 22:25:00,
2013-02-19 14:30:00,48.1,35.0,29.88,West,262,2.0,16.0,60,0.00,,,0.00,WUHU216DAVISVP2,2013-02-19 22:30:00,
2013-02-19 14:35:00,47.8,35.5,29.88,North,6,3.0,16.0,62,0.00,,,0.00,WUHU216DAVISVP2,2013-02-19 22:35:00,
2013-02-19 14:40:00,47.6,35.7,29.89,NW,320,3.0,15.0,63,0.00,,,0.00,WUHU216DAVISVP2,2013-02-19 22:40:00,
2013-02-19 14:45:00,47.5,36.0,29.89,NNE,16,3.0,15.0,64,0.00,,,0.00,WUHU216DAVISVP2,2013-02-19 22:45:00,
2013-02-19 14:50:00,47.8,35.9,29.89,NW,318,0.0,12.0,63,0.00,,,0.00,WUHU216DAVISVP2,2013-02-19 22:50:00,
2013-02-19 14:55:00,47.6,33.6,29.89,North,5,3.0,12.0,58,0.00,,,0.00,WUHU216DAVISVP2,2013-02-19 22:55:00,
2013-02-19 15:00:00,47.4,35.1,29.89,NE,50,5.0,12.0,62,0.00,,,0.00,WUHU216DAVISVP2,2013-02-19 23:00:00,
2013-02-19 15:05:00,47.2,36.1,29.89,NW,326,5.0,11.0,65,0.00,,,0.00,WUHU216DAVISVP2,2013-02-19 23:05:00,
2013-02-19 15:10:00,47.0,35.5,29.89,North,349,9.0,15.0,64,0.00,,,0.00,WUHU216DAVISVP2,2013-02-19 23:10:00,
2013-02-19 15:15:00,47.1,35.6,29.89,North,10,6.0,15.0,64,0.00,,,0.00,WUHU216DAVISVP2,2013-02-19 23:15:00,
2013-02-19 15:20:00,47.1,35.6,29.90,ENE,65,1.0,14.0,64,0.00,,,0.00,WUHU216DAVISVP2,2013-02-19 23:20:00,
2013-02-19 15:25:00,47.4,35.9,29.90,NW,317,2.0,13.0,64,0.00,,,0.00,WUHU216DAVISVP2,2013-02-19 23:25:00,
2013-02-19 15:30:00,47.6,35.7,29.90,NNE,30,2.0,13.0,63,0.00,,,0.00,WUHU216DAVISVP2,2013-02-19 23:30:00,
2013-02-19 15:35:00,47.7,35.4,29.90,NNE,23,5.0,13.0,62,0.00,,,0.00,WUHU216DAVISVP2,2013-02-19 23:35:00,
2013-02-19 15:40:00,47.2,34.9,29.90,NNW,348,9.0,14.0,62,0.00,,,0.00,WUHU216DAVISVP2,2013-02-19 23:40:00,
2013-02-19 15:45:00,47.1,35.6,29.90,NNE,27,2.0,14.0,64,0.00,,,0.00,WUHU216DAVISVP2,2013-02-19 23:45:00,
2013-02-19 15:50:00,47.4,36.3,29.90,North,6,4.0,13.0,65,0.00,,,0.00,WUHU216DAVISVP2,2013-02-19 23:50:00,
2013-02-19 15:55:00,47.1,35.5,29.90,North,360,5.0,16.0,64,0.00,,,0.00,WUHU216DAVISVP2,2013-02-19 23:55:00,
2013-02-19 16:00:00,46.8,36.1,29.90,NNE,20,5.0,16.0,66,0.00,,,0.00,WUHU216DAVISVP2,2013-02-20 00:00:00,
2013-02-19 16:05:00,47.1,36.4,29.90,NNW,345,4.0,15.0,66,0.00,,,0.00,WUHU216DAVISVP2,2013-02-20 00:05:00,
2013-02-19 16:10:00,46.9,36.5,29.90,North,10,8.0,15.0,67,0.00,,,0.00,WUHU216DAVISVP2,2013-02-20 00:10:00,
2013-02-19 16:15:00,46.5,35.9,29.90,NE,43,7.0,14.0,66,0.00,,,0.00,WUHU216DAVISVP2,2013-02-20 00:15:00,
2013-02-19 16:20:00,46.3,36.4,29.90,NW,305,2.0,14.0,68,0.00,,,0.00,WUHU216DAVISVP2,2013-02-20 00:20:00,
2013-02-19 16:25:00,46.4,36.5,29.90,NE,34,0.0,14.0,68,0.00,,,0.00,WUHU216DAVISVP2,2013-02-20 00:25:00,
2013-02-19 16:30:00,46.4,36.5,29.91,North,10,5.0,13.0,68,0.00,,,0.00,WUHU216DAVISVP2,2013-02-20 00:30:00,
2013-02-19 16:35:00,46.3,36.0,29.91,NE,44,0.0,12.0,67,0.00,,,0.00,WUHU216DAVISVP2,2013-02-20 00:35:00,
2013-02-19 16:40:00,46.1,37.0,29.91,North,354,3.0,10.0,70,0.00,,,0.00,WUHU216DAVISVP2,2013-02-20 00:40:00,
2013-02-19 16:45:00,45.8,37.4,29.91,North,356,2.0,10.0,72,0.00,,,0.00,WUHU216DAVISVP2,2013-02-20 00:45:00,
2013-02-19 16:50:00,45.5,37.4,29.91,NNE,23,6.0,11.0,73,0.00,,,0.00,WUHU216DAVISVP2,2013-02-20 00:50:00,
2013-02-19 16:55:00,45.1,37.7,29.91,NNE,28,4.0,11.0,75,0.00,,,0.00,WUHU216DAVISVP2,2013-02-20 00:55:00,
2013-02-19 17:00:00,44.7,37.3,29.91,NNE,32,3.0,12.0,75,0.00,,,0.00,WUHU216DAVISVP2,2013-02-20 01:00:00,
2013-02-19 17:05:00,44.5,37.5,29.91,North,356,2.0,12.0,76,0.00,,,0.00,WUHU216DAVISVP2,2013-02-20 01:05:00,
2013-02-19 17:10:00,44.3,37.2,29.91,NNW,347,3.0,13.0,76,0.00,,,0.00,WUHU216DAVISVP2,2013-02-20 01:10:00,
2013-02-19 17:15:00,44.1,37.4,29.91,North,8,2.0,13.0,77,0.00,,,0.00,WUHU216DAVISVP2,2013-02-20 01:15:00,
2013-02-19 17:20:00,43.8,36.8,29.91,North,11,3.0,11.0,76,0.00,,,0.00,WUHU216DAVISVP2,2013-02-20 01:20:00,
2013-02-19 17:25:00,43.6,36.9,29.91,NNE,32,3.0,11.0,77,0.00,,,0.00,WUHU216DAVISVP2,2013-02-20 01:25:00,
2013-02-19 17:30:00,43.4,36.7,29.91,NNE,13,0.0,9.0,77,0.00,,,0.00,WUHU216DAVISVP2,2013-02-20 01:30:00,
2013-02-19 17:35:00,43.2,36.8,29.92,NE,39,0.0,9.0,78,0.00,,,0.00,WUHU216DAVISVP2,2013-02-20 01:35:00,
2013-02-19 17:40:00,43.1,36.7,29.92,NNE,32,0.0,8.0,78,0.00,,,0.00,WUHU216DAVISVP2,2013-02-20 01:40:00,
2013-02-19 17:45:00,42.9,36.5,29.92,NNW,333,1.0,8.0,78,0.00,,,0.00,WUHU216DAVISVP2,2013-02-20 01:45:00,
2013-02-19 17:50:00,42.8,36.7,29.92,ESE,104,0.0,8.0,79,0.00,,,0.00,WUHU216DAVISVP2,2013-02-20 01:50:00,
2013-02-19 17:55:00,42.7,36.7,29.92,North,359,0.0,8.0,79,0.00,,,0.00,WUHU216DAVISVP2,2013-02-20 01:55:00,
2013-02-19 18:00:00,42.5,37.1,29.92,NE,37,1.0,4.0,81,0.00,,,0.00,WUHU216DAVISVP2,2013-02-20 02:00:00,
2013-02-19 18:05:00,42.4,37.0,29.92,North,11,0.0,4.0,81,0.00,,,0.00,WUHU216DAVISVP2,2013-02-20 02:05:00,
2013-02-19 18:10:00,42.3,37.2,29.92,NE,34,0.0,4.0,82,0.00,,,0.00,WUHU216DAVISVP2,2013-02-20 02:10:00,
2013-02-19 18:15:00,42.2,37.1,29.93,NNE,25,0.0,4.0,82,0.00,,,0.00,WUHU216DAVISVP2,2013-02-20 02:15:00,
2013-02-19 18:20:00,42.1,37.0,29.93,North,3,1.0,4.0,82,0.00,,,0.00,WUHU216DAVISVP2,2013-02-20 02:20:00,
2013-02-19 18:25:00,42.1,37.0,29.93,WSW,238,1.0,7.0,82,0.00,,,0.00,WUHU216DAVISVP2,2013-02-20 02:25:00,
2013-02-19 18:30:00,42.1,37.3,29.93,NE,37,0.0,7.0,83,0.00,,,0.00,WUHU216DAVISVP2,2013-02-20 02:30:00,
2013-02-19 18:35:00,41.9,37.1,29.93,NNE,23,0.0,6.0,83,0.00,,,0.00,WUHU216DAVISVP2,2013-02-20 02:35:00,
2013-02-19 18:40:00,41.9,37.1,29.93,NW,305,0.0,6.0,83,0.00,,,0.00,WUHU216DAVISVP2,2013-02-20 02:40:00,
2013-02-19 18:45:00,41.7,36.9,29.94,North,10,0.0,4.0,83,0.00,,,0.00,WUHU216DAVISVP2,2013-02-20 02:45:00,
2013-02-19 18:50:00,41.6,37.1,29.94,NE,35,0.0,4.0,84,0.00,,,0.00,WUHU216DAVISVP2,2013-02-20 02:50:00,
2013-02-19 18:55:00,41.5,37.0,29.94,NW,325,0.0,3.0,84,0.00,,,0.00,WUHU216DAVISVP2,2013-02-20 02:55:00,
2013-02-19 19:00:00,41.3,36.8,29.95,NNE,23,0.0,3.0,84,0.00,,,0.00,WUHU216DAVISVP2,2013-02-20 03:00:00,
2013-02-19 19:05:00,41.1,36.6,29.95,North,9,0.0,2.0,84,0.00,,,0.00,WUHU216DAVISVP2,2013-02-20 03:05:00,
2013-02-19 19:10:00,40.9,36.7,29.95,NNE,19,0.0,2.0,85,0.00,,,0.00,WUHU216DAVISVP2,2013-02-20 03:10:00,
2013-02-19 19:15:00,40.9,36.7,29.95,NNW,345,0.0,2.0,85,0.00,,,0.00,WUHU216DAVISVP2,2013-02-20 03:15:00,
2013-02-19 19:20:00,40.8,36.6,29.96,NNE,23,0.0,2.0,85,0.00,,,0.00,WUHU216DAVISVP2,2013-02-20 03:20:00,
2013-02-19 19:25:00,40.8,36.6,29.96,NNE,12,0.0,2.0,85,0.00,,,0.00,WUHU216DAVISVP2,2013-02-20 03:25:00,
2013-02-19 19:30:00,40.7,36.8,29.96,NNE,12,1.0,2.0,86,0.00,,,0.00,WUHU216DAVISVP2,2013-02-20 03:30:00,
2013-02-19 19:35:00,40.6,36.7,29.96,NE,44,0.0,2.0,86,0.00,,,0.00,WUHU216DAVISVP2,2013-02-20 03:35:00,
2013-02-19 19:40:00,40.5,36.6,29.96,NNE,23,0.0,2.0,86,0.00,,,0.00,WUHU216DAVISVP2,2013-02-20 03:40:00,
2013-02-19 19:45:00,40.4,36.5,29.97,NNE,13,0.0,2.0,86,0.00,,,0.00,WUHU216DAVISVP2,2013-02-20 03:45:00,
2013-02-19 19:50:00,40.1,36.2,29.96,NNE,13,0.0,2.0,86,0.00,,,0.00,WUHU216DAVISVP2,2013-02-20 03:50:00,
2013-02-19 19:55:00,39.8,36.2,29.96,NNE,13,0.0,1.0,87,0.00,,,0.00,WUHU216DAVISVP2,2013-02-20 03:55:00,
2013-02-19 20:00:00,39.6,36.3,29.96,NNE,13,0.0,1.0,88,0.00,,,0.00,WUHU216DAVISVP2,2013-02-20 04:00:00,
2013-02-19 20:05:00,39.6,36.6,29.97,North,359,1.0,3.0,89,0.00,,,0.00,WUHU216DAVISVP2,2013-02-20 04:05:00,
2013-02-19 20:10:00,39.7,36.7,29.97,North,360,0.0,3.0,89,0.00,,,0.00,WUHU216DAVISVP2,2013-02-20 04:10:00,
2013-02-19 20:15:00,39.5,36.5,29.97,North,360,0.0,3.0,89,0.00,,,0.00,WUHU216DAVISVP2,2013-02-20 04:15:00,
2013-02-19 20:20:00,39.4,36.4,29.97,North,359,0.0,2.0,89,0.00,,,0.00,WUHU216DAVISVP2,2013-02-20 04:20:00,
2013-02-19 20:25:00,39.3,36.6,29.98,North,360,0.0,1.0,90,0.00,,,0.00,WUHU216DAVISVP2,2013-02-20 04:25:00,
2013-02-19 20:30:00,39.2,36.7,29.98,North,359,0.0,0.0,91,0.00,,,0.00,WUHU216DAVISVP2,2013-02-20 04:30:00,
2013-02-19 20:35:00,39.1,36.4,29.98,North,360,0.0,0.0,90,0.00,,,0.00,WUHU216DAVISVP2,2013-02-20 04:35:00,
2013-02-19 20:40:00,39.0,36.6,29.98,North,360,0.0,0.0,91,0.00,,,0.00,WUHU216DAVISVP2,2013-02-20 04:40:00,
2013-02-19 20:45:00,39.0,36.6,29.98,North,360,0.0,0.0,91,0.00,,,0.00,WUHU216DAVISVP2,2013-02-20 04:45:00,
2013-02-19 20:50:00,39.0,36.6,29.99,North,360,0.0,0.0,91,0.00,,,0.00,WUHU216DAVISVP2,2013-02-20 04:50:00,
2013-02-19 20:55:00,38.9,36.5,29.99,North,360,0.0,0.0,91,0.00,,,0.00,WUHU216DAVISVP2,2013-02-20 04:55:00,
2013-02-19 21:00:00,38.9,36.5,29.99,North,359,0.0,0.0,91,0.00,,,0.00,WUHU216DAVISVP2,2013-02-20 05:00:00,
2013-02-19 21:05:00,38.9,36.7,29.99,North,360,0.0,1.0,92,0.00,,,0.00,WUHU216DAVISVP2,2013-02-20 05:05:00,
2013-02-19 21:10:00,39.1,36.9,29.99,North,6,0.0,1.0,92,0.00,,,0.00,WUHU216DAVISVP2,2013-02-20 05:10:00,
2013-02-19 21:15:00,39.2,37.0,29.99,North,6,0.0,1.0,92,0.00,,,0.00,WUHU216DAVISVP2,2013-02-20 05:15:00,
2013-02-19 21:20:00,39.1,36.6,29.99,North,6,0.0,1.0,91,0.00,,,0.00,WUHU216DAVISVP2,2013-02-20 05:20:00,
2013-02-19 21:25:00,39.0,36.5,30.00,North,6,0.0,1.0,91,0.00,,,0.00,WUHU216DAVISVP2,2013-02-20 05:25:00,
2013-02-19 21:30:00,39.0,36.8,30.00,NNE,12,0.0,1.0,92,0.00,,,0.00,WUHU216DAVISVP2,2013-02-20 05:30:00,
2013-02-19 21:35:00,39.0,36.8,30.00,ENE,78,1.0,1.0,92,0.00,,,0.00,WUHU216DAVISVP2,2013-02-20 05:35:00,
2013-02-19 21:40:00,39.0,36.9,30.00,ENE,70,0.0,1.0,92,0.00,,,0.00,WUHU216DAVISVP2,2013-02-20 05:40:00,
2013-02-19 21:45:00,39.0,36.9,30.01,East,80,0.0,1.0,92,0.00,,,0.00,WUHU216DAVISVP2,2013-02-20 05:45:00,
2013-02-19 21:50:00,39.0,36.8,30.00,East,80,0.0,1.0,92,0.00,,,0.00,WUHU216DAVISVP2,2013-02-20 05:50:00,
2013-02-19 21:55:00,39.1,36.9,30.01,East,81,0.0,1.0,92,0.00,,,0.00,WUHU216DAVISVP2,2013-02-20 05:55:00,
2013-02-19 22:00:00,39.1,36.9,30.01,NE,46,0.0,1.0,92,0.00,,,0.00,WUHU216DAVISVP2,2013-02-20 06:00:00,
2013-02-19 22:05:00,39.1,36.9,30.01,East,89,0.0,0.0,92,0.00,,,0.00,WUHU216DAVISVP2,2013-02-20 06:05:00,
2013-02-19 22:10:00,39.2,37.0,30.01,ENE,73,0.0,1.0,92,0.00,,,0.00,WUHU216DAVISVP2,2013-02-20 06:10:00,
2013-02-19 22:15:00,39.2,36.7,30.01,ENE,73,0.0,1.0,91,0.00,,,0.00,WUHU216DAVISVP2,2013-02-20 06:15:00,
2013-02-19 22:20:00,39.2,36.7,30.01,ENE,59,0.0,1.0,91,0.00,,,0.00,WUHU216DAVISVP2,2013-02-20 06:20:00,
2013-02-19 22:25:00,39.2,36.7,30.02,ENE,59,0.0,1.0,91,0.00,,,0.00,WUHU216DAVISVP2,2013-02-20 06:25:00,
2013-02-19 22:30:00,39.2,36.5,30.02,ENE,72,0.0,1.0,90,0.00,,,0.00,WUHU216DAVISVP2,2013-02-20 06:30:00,
2013-02-19 22:35:00,39.3,36.6,30.02,ENE,73,0.0,2.0,90,0.00,,,0.00,WUHU216DAVISVP2,2013-02-20 06:35:00,
2013-02-19 22:40:00,39.2,36.2,30.02,ENE,71,1.0,2.0,89,0.00,,,0.00,WUHU216DAVISVP2,2013-02-20 06:40:00,
2013-02-19 22:45:00,39.2,36.2,30.02,ENE,61,0.0,2.0,89,0.00,,,0.00,WUHU216DAVISVP2,2013-02-20 06:45:00,
2013-02-19 22:50:00,39.0,35.7,30.03,ENE,70,0.0,2.0,88,0.00,,,0.00,WUHU216DAVISVP2,2013-02-20 06:50:00,
2013-02-19 22:55:00,38.6,35.6,30.03,ENE,70,0.0,2.0,89,0.00,,,0.00,WUHU216DAVISVP2,2013-02-20 06:55:00,
2013-02-19 23:00:00,38.2,35.2,30.03,ENE,70,0.0,1.0,89,0.00,,,0.00,WUHU216DAVISVP2,2013-02-20 07:00:00,
2013-02-19 23:05:00,38.1,35.4,30.03,ENE,71,0.0,0.0,90,0.00,,,0.00,WUHU216DAVISVP2,2013-02-20 07:05:00,
2013-02-19 23:10:00,38.3,35.6,30.03,ENE,70,0.0,1.0,90,0.00,,,0.00,WUHU216DAVISVP2,2013-02-20 07:10:00,
2013-02-19 23:15:00,38.7,36.0,30.03,ENE,70,1.0,1.0,90,0.00,,,0.00,WUHU216DAVISVP2,2013-02-20 07:15:00,
2013-02-19 23:20:00,39.1,35.8,30.04,ENE,68,1.0,2.0,88,0.00,,,0.00,WUHU216DAVISVP2,2013-02-20 07:20:00,
2013-02-19 23:25:00,39.3,36.0,30.04,ENE,68,1.0,2.0,88,0.00,,,0.00,WUHU216DAVISVP2,2013-02-20 07:25:00,
2013-02-19 23:30:00,39.3,36.0,30.04,ENE,68,0.0,1.0,88,0.00,,,0.00,WUHU216DAVISVP2,2013-02-20 07:30:00,
2013-02-19 23:35:00,39.2,35.9,30.04,ENE,65,1.0,1.0,88,0.00,,,0.00,WUHU216DAVISVP2,2013-02-20 07:35:00,
2013-02-19 23:40:00,39.1,36.1,30.05,ENE,63,1.0,2.0,89,0.00,,,0.00,WUHU216DAVISVP2,2013-02-20 07:40:00,
2013-02-19 23:45:00,38.9,36.2,30.04,ENE,70,1.0,2.0,90,0.00,,,0.00,WUHU216DAVISVP2,2013-02-20 07:45:00,
2013-02-19 23:50:00,38.9,36.5,30.05,ENE,70,1.0,1.0,91,0.00,,,0.00,WUHU216DAVISVP2,2013-02-20 07:50:00,
2013-02-19 23:55:00,38.9,36.5,30.05,ENE,68,1.0,1.0,91,0.00,,,0.00,WUHU216DAVISVP2,2013-02-20 07:55:00,